Terminal Aerodrome Forecast
Issued by NWS St Louis, MO

Home | Current Version | Previous Version | Text Only | Print | Product List | Glossary On
Versions: 1 2 3 4 5 6 7 8 9 10 11 12 13 14 15 16 17 18 19 20 21 22 23 24 25 26 27 28 29 30 31
000
FTUS43 KLSX 211500 AAA
TAFSTL
TAF AMD
KSTL 211501Z 2115/2218 14008KT P6SM OVC025
     FM212100 15010KT P6SM OVC035=

USA.gov is the U.S. government's official web portal to all federal, state and local government web resources and services.